| time (UTC) | temp C | wind direction | speed KPH | gust KPH | rain 1hr cm | rain 24hr cm | rain mn cm | humidity % | barometer mb |
| 20260503211924 | 16 | 256 | 12.9 | 24.1 | 0.00 | 0.00 | 0.00 | 70 | 1013.1 |
| 20260503211430 | 16 | 244 | 16.1 | 30.6 | 0.00 | 0.00 | 0.00 | 70 | 1013.0 |
| 20260503210937 | 16 | 202 | 17.7 | 30.6 | 0.00 | 0.00 | 0.00 | 68 | 1013.0 |
| 20260503210438 | 16 | 236 | 8.0 | 24.1 | 0.00 | 0.00 | 0.00 | 70 | 1012.9 |
| 20260503205952 | 16 | 284 | 11.3 | 20.9 | 0.00 | 0.00 | 0.00 | 70 | 1012.9 |
| 20260503205446 | 16 | 244 | 11.3 | 24.1 | 0.00 | 0.00 | 0.00 | 71 | 1012.8 |
| 20260503204931 | 16 | 227 | 9.7 | 24.1 | 0.00 | 0.00 | 0.00 | 71 | 1012.9 |
| 20260503204418 | 16 | 263 | 11.3 | 20.9 | 0.00 | 0.00 | 0.00 | 71 | 1012.9 |
| 20260503203924 | 16 | 212 | 9.7 | 24.1 | 0.00 | 0.00 | 0.00 | 72 | 1012.8 |
| 20260503203433 | 16 | 259 | 12.9 | 24.1 | 0.00 | 0.00 | 0.00 | 72 | 1012.9 |
| 20260503202918 | 16 | 212 | 8.0 | 20.9 | 0.00 | 0.00 | 0.00 | 73 | 1013.0 |
| 20260503202420 | 15 | 249 | 12.9 | 24.1 | 0.00 | 0.00 | 0.00 | 72 | 1013.0 |
| 20260503201926 | 16 | 228 | 11.3 | 20.9 | 0.00 | 0.00 | 0.00 | 73 | 1013.0 |
| 20260503201434 | 15 | 239 | 8.0 | 25.7 | 0.00 | 0.00 | 0.00 | 73 | 1013.1 |
| 20260503200922 | 15 | 244 | 9.7 | 25.7 | 0.00 | 0.00 | 0.00 | 73 | 1013.2 |
| 20260503200428 | 15 | 246 | 11.3 | 20.9 | 0.00 | 0.00 | 0.00 | 73 | 1013.1 |
| 20260503195933 | 16 | 205 | 9.7 | 20.9 | 0.00 | 0.00 | 0.00 | 72 | 1013.2 |
| 20260503195419 | 15 | 285 | 6.4 | 20.9 | 0.00 | 0.00 | 0.00 | 73 | 1013.2 |
| 20260503194942 | 15 | 302 | 8.0 | 20.9 | 0.00 | 0.00 | 0.00 | 73 | 1013.2 |
| 20260503194455 | 15 | 251 | 8.0 | 22.5 | 0.00 | 0.00 | 0.00 | 74 | 1013.3 |
| 20260503193922 | 15 | 294 | 11.3 | 22.5 | 0.00 | 0.00 | 0.00 | 74 | 1013.4 |
| 20260503193429 | 15 | 224 | 11.3 | 27.4 | 0.00 | 0.00 | 0.00 | 73 | 1013.3 |
| 20260503192934 | 15 | 284 | 14.5 | 27.4 | 0.00 | 0.00 | 0.00 | 72 | 1013.3 |
| 20260503192421 | 15 | 264 | 11.3 | 24.1 | 0.00 | 0.00 | 0.00 | 72 | 1013.4 |
| 20260503191927 | 16 | 261 | 9.7 | 24.1 | 0.00 | 0.00 | 0.00 | 71 | 1013.3 |
| 20260503191431 | 16 | 226 | 9.7 | 24.1 | 0.00 | 0.00 | 0.00 | 71 | 1013.3 |
| 20260503190937 | 16 | 280 | 6.4 | 30.6 | 0.00 | 0.00 | 0.00 | 72 | 1013.3 |
| 20260503190451 | 16 | 235 | 12.9 | 24.1 | 0.00 | 0.00 | 0.00 | 72 | 1013.4 |
| 20260503185926 | 16 | 171 | 11.3 | 24.1 | 0.00 | 0.00 | 0.00 | 72 | 1013.4 |
| 20260503185433 | 16 | 194 | 11.3 | 27.4 | 0.00 | 0.00 | 0.00 | 72 | 1013.4 |
| 20260503184916 | 16 | 224 | 12.9 | 27.4 | 0.00 | 0.00 | 0.00 | 72 | 1013.5 |
| 20260503184421 | 16 | 251 | 11.3 | 22.5 | 0.00 | 0.00 | 0.00 | 72 | 1013.4 |
| 20260503183923 | 16 | 233 | 8.0 | 19.3 | 0.00 | 0.00 | 0.00 | 73 | 1013.4 |
| 20260503183430 | 15 | 202 | 9.7 | 17.7 | 0.00 | 0.00 | 0.00 | 74 | 1013.4 |
| 20260503182935 | 15 | 290 | 8.0 | 19.3 | 0.00 | 0.00 | 0.00 | 74 | 1013.4 |
| 20260503182419 | 15 | 242 | 8.0 | 19.3 | 0.00 | 0.00 | 0.00 | 74 | 1013.3 |
| 20260503181926 | 15 | 234 | 8.0 | 20.9 | 0.00 | 0.00 | 0.00 | 75 | 1013.4 |
| 20260503181430 | 15 | 270 | 9.7 | 20.9 | 0.00 | 0.00 | 0.00 | 75 | 1013.3 |
| 20260503180933 | 15 | 275 | 8.0 | 22.5 | 0.00 | 0.00 | 0.00 | 76 | 1013.3 |
| 20260503180437 | 14 | 330 | 12.9 | 22.5 | 0.00 | 0.00 | 0.00 | 76 | 1013.4 |
| 20260503175920 | 14 | 339 | 11.3 | 20.9 | 0.00 | 0.00 | 0.00 | 77 | 1013.2 |
| 20260503175456 | 14 | 270 | 14.5 | 24.1 | 0.00 | 0.00 | 0.00 | 76 | 1013.3 |
| 20260503174949 | 14 | 282 | 12.9 | 25.7 | 0.00 | 0.00 | 0.00 | 77 | 1013.2 |
| 20260503174434 | 14 | 290 | 16.1 | 25.7 | 0.00 | 0.00 | 0.00 | 77 | 1013.2 |
| 20260503173919 | 14 | 339 | 9.7 | 19.3 | 0.00 | 0.00 | 0.00 | 77 | 1013.2 |
| 20260503173424 | 14 | 277 | 8.0 | 16.1 | 0.00 | 0.00 | 0.00 | 77 | 1013.2 |
| 20260503172925 | 14 | 268 | 6.4 | 16.1 | 0.00 | 0.00 | 0.00 | 77 | 1013.3 |
| 20260503172431 | 14 | 256 | 8.0 | 16.1 | 0.00 | 0.00 | 0.00 | 77 | 1013.2 |
| 20260503171949 | 14 | 193 | 8.0 | 20.9 | 0.00 | 0.00 | 0.00 | 77 | 1013.2 |
| 20260503171435 | 14 | 189 | 11.3 | 20.9 | 0.00 | 0.00 | 0.00 | 77 | 1013.2 |
| 20260503170942 | 14 | 193 | 8.0 | 19.3 | 0.00 | 0.00 | 0.00 | 77 | 1013.2 |
| 20260503170427 | 14 | 297 | 8.0 | 19.3 | 0.00 | 0.00 | 0.00 | 78 | 1013.2 |
| 20260503150927 | 12 | 45 | 1.6 | 9.7 | 0.00 | 0.00 | 0.00 | 81 | 1012.4 |
| 20260503150432 | 12 | 217 | 4.8 | 9.7 | 0.00 | 0.00 | 0.00 | 81 | 1012.4 |
| 20260503130954 | 12 | 218 | 4.8 | 9.7 | 0.00 | 0.00 | 0.00 | 81 | 1011.1 |
| 20260503130441 | 12 | 268 | 1.6 | 9.7 | 0.00 | 0.00 | 0.00 | 81 | 1011.0 |
| 20260503110418 | 12 | 284 | 4.8 | 14.5 | 0.00 | 0.00 | 0.00 | 83 | 1011.2 |
| 20260503090436 | 12 | 270 | 8.0 | 14.5 | 0.00 | 0.00 | 0.00 | 82 | 1011.6 |
| 20260503081434 | 12 | 205 | 3.2 | 12.9 | 0.00 | 0.00 | 0.00 | 83 | 1012.1 |
| 20260503080941 | 12 | 292 | 6.4 | 17.7 | 0.00 | 0.00 | 0.00 | 83 | 1012.1 |
| 20260503080424 | 12 | 251 | 9.7 | 19.3 | 0.00 | 0.00 | 0.00 | 83 | 1012.1 |
| 20260503072422 | 12 | 249 | 12.9 | 20.9 | 0.00 | 0.00 | 0.00 | 83 | 1012.1 |
| 20260503071926 | 12 | 270 | 11.3 | 17.7 | 0.00 | 0.00 | 0.00 | 83 | 1012.0 |
| 20260503071431 | 12 | 289 | 8.0 | 17.7 | 0.00 | 0.00 | 0.00 | 83 | 1012.0 |
| 20260503070918 | 12 | 263 | 4.8 | 14.5 | 0.00 | 0.00 | 0.00 | 83 | 1012.1 |
| 20260503070447 | 12 | 219 | 6.4 | 16.1 | 0.00 | 0.00 | 0.00 | 83 | 1012.1 |
| 20260503054927 | 12 | 256 | 6.4 | 17.7 | 0.00 | 0.00 | 0.00 | 82 | 1012.4 |
| 20260503054430 | 12 | 264 | 9.7 | 17.7 | 0.00 | 0.00 | 0.00 | 82 | 1012.4 |
| 20260503053919 | 12 | 273 | 8.0 | 16.1 | 0.00 | 0.00 | 0.00 | 82 | 1012.5 |
| 20260503053424 | 12 | 268 | 8.0 | 19.3 | 0.00 | 0.00 | 0.00 | 82 | 1012.6 |
| 20260503052930 | 12 | 278 | 9.7 | 19.3 | 0.00 | 0.00 | 0.00 | 82 | 1012.5 |
| 20260503052417 | 12 | 268 | 11.3 | 19.3 | 0.00 | 0.00 | 0.00 | 82 | 1012.5 |
| 20260503051944 | 12 | 268 | 8.0 | 25.7 | 0.00 | 0.00 | 0.00 | 82 | 1012.5 |
| 20260503051432 | 12 | 264 | 14.5 | 20.9 | 0.00 | 0.00 | 0.00 | 82 | 1012.6 |
| 20260503050936 | 12 | 285 | 11.3 | 19.3 | 0.00 | 0.00 | 0.00 | 82 | 1012.5 |
| 20260503050425 | 12 | 275 | 9.7 | 20.9 | 0.00 | 0.00 | 0.00 | 82 | 1012.4 |
| 20260503045933 | 12 | 306 | 11.3 | 22.5 | 0.00 | 0.00 | 0.00 | 82 | 1012.5 |
| 20260503045419 | 12 | 263 | 12.9 | 22.5 | 0.00 | 0.00 | 0.00 | 82 | 1012.5 |
| 20260503044928 | 12 | 280 | 12.9 | 22.5 | 0.00 | 0.00 | 0.00 | 82 | 1012.6 |
| 20260503044436 | 12 | 294 | 11.3 | 20.9 | 0.00 | 0.00 | 0.00 | 82 | 1012.4 |
| 20260503043953 | 12 | 273 | 11.3 | 19.3 | 0.00 | 0.00 | 0.00 | 82 | 1012.3 |
| 20260503043418 | 12 | 288 | 12.9 | 24.1 | 0.00 | 0.00 | 0.00 | 82 | 1012.2 |
| 20260503042919 | 12 | 268 | 14.5 | 25.7 | 0.00 | 0.00 | 0.00 | 82 | 1012.3 |
| 20260503042425 | 12 | 282 | 11.3 | 25.7 | 0.00 | 0.00 | 0.00 | 82 | 1012.3 |
| 20260503041932 | 12 | 273 | 9.7 | 19.3 | 0.00 | 0.00 | 0.00 | 82 | 1012.3 |
| 20260503041417 | 12 | 249 | 9.7 | 19.3 | 0.00 | 0.00 | 0.00 | 82 | 1012.3 |
| 20260503040923 | 12 | 280 | 11.3 | 25.7 | 0.00 | 0.00 | 0.00 | 82 | 1012.2 |
| 20260503040429 | 12 | 314 | 12.9 | 25.7 | 0.00 | 0.00 | 0.00 | 82 | 1012.3 |
| 20260503035936 | 12 | 270 | 12.9 | 24.1 | 0.00 | 0.00 | 0.00 | 82 | 1012.3 |
| 20260503035418 | 12 | 247 | 9.7 | 19.3 | 0.00 | 0.00 | 0.00 | 82 | 1012.2 |
| 20260503034927 | 12 | 273 | 8.0 | 16.1 | 0.00 | 0.00 | 0.00 | 82 | 1012.3 |
| 20260503034435 | 12 | 249 | 8.0 | 24.1 | 0.00 | 0.00 | 0.00 | 82 | 1012.2 |
| 20260503033953 | 12 | 222 | 4.8 | 20.9 | 0.00 | 0.00 | 0.00 | 82 | 1012.1 |
| 20260503033439 | 12 | 271 | 11.3 | 20.9 | 0.00 | 0.00 | 0.00 | 82 | 1012.0 |
| 20260503032954 | 12 | 280 | 9.7 | 22.5 | 0.00 | 0.00 | 0.00 | 82 | 1011.8 |
| 20260503032418 | 12 | 239 | 8.0 | 22.5 | 0.00 | 0.00 | 0.00 | 82 | 1011.8 |
| 20260503031942 | 12 | 225 | 12.9 | 22.5 | 0.00 | 0.00 | 0.00 | 82 | 1011.6 |
| 20260503031431 | 12 | 261 | 11.3 | 24.1 | 0.00 | 0.00 | 0.00 | 82 | 1011.5 |
| 20260503030938 | 12 | 254 | 12.9 | 27.4 | 0.00 | 0.00 | 0.00 | 82 | 1011.2 |
| 20260503030424 | 12 | 268 | 12.9 | 27.4 | 0.00 | 0.00 | 0.00 | 82 | 1011.2 |
| 20260503025931 | 12 | 349 | 12.9 | 24.1 | 0.00 | 0.00 | 0.00 | 82 | 1011.3 |
| 20260503025417 | 12 | 249 | 11.3 | 29.0 | 0.00 | 0.00 | 0.00 | 82 | 1011.2 |
| 20260503024923 | 12 | 295 | 14.5 | 29.0 | 0.00 | 0.00 | 0.00 | 82 | 1011.2 |
| 20260503024427 | 12 | 268 | 11.3 | 30.6 | 0.00 | 0.00 | 0.00 | 82 | 1011.2 |
| 20260503023936 | 12 | 224 | 14.5 | 30.6 | 0.00 | 0.00 | 0.00 | 82 | 1011.2 |
| 20260503023423 | 12 | 297 | 14.5 | 27.4 | 0.00 | 0.00 | 0.00 | 81 | 1011.2 |
| 20260503022929 | 12 | 295 | 9.7 | 22.5 | 0.00 | 0.00 | 0.00 | 81 | 1011.4 |
| 20260503022417 | 12 | 261 | 14.5 | 25.7 | 0.00 | 0.00 | 0.00 | 81 | 1011.3 |
| 20260503021943 | 12 | 295 | 16.1 | 25.7 | 0.00 | 0.00 | 0.00 | 81 | 1011.3 |
| 20260503021428 | 12 | 275 | 12.9 | 24.1 | 0.00 | 0.00 | 0.00 | 81 | 1011.3 |
| 20260503020930 | 12 | 247 | 11.3 | 22.5 | 0.00 | 0.00 | 0.00 | 81 | 1011.4 |
| 20260503020434 | 12 | 268 | 11.3 | 22.5 | 0.00 | 0.00 | 0.00 | 80 | 1011.4 |
| 20260503015920 | 13 | 282 | 9.7 | 22.5 | 0.00 | 0.00 | 0.00 | 80 | 1011.5 |
| 20260503015456 | 12 | 278 | 12.9 | 25.7 | 0.00 | 0.00 | 0.00 | 80 | 1011.4 |
| 20260503014920 | 12 | 270 | 11.3 | 27.4 | 0.00 | 0.00 | 0.00 | 80 | 1011.5 |
| 20260503014425 | 12 | 282 | 16.1 | 30.6 | 0.00 | 0.00 | 0.00 | 79 | 1011.6 |
| 20260503013931 | 13 | 320 | 12.9 | 29.0 | 0.00 | 0.00 | 0.00 | 79 | 1011.7 |
| 20260503013433 | 13 | 278 | 12.9 | 29.0 | 0.00 | 0.00 | 0.00 | 79 | 1011.7 |
| 20260503012918 | 13 | 293 | 12.9 | 29.0 | 0.00 | 0.00 | 0.00 | 79 | 1011.6 |
| 20260503012425 | 13 | 302 | 16.1 | 30.6 | 0.00 | 0.00 | 0.00 | 78 | 1011.7 |
| 20260503011931 | 13 | 253 | 14.5 | 30.6 | 0.00 | 0.00 | 0.00 | 78 | 1011.8 |
| 20260503011418 | 13 | 276 | 14.5 | 27.4 | 0.00 | 0.00 | 0.00 | 78 | 1011.8 |
| 20260503010923 | 13 | 294 | 9.7 | 29.0 | 0.00 | 0.00 | 0.00 | 78 | 1011.8 |
| 20260503010429 | 13 | 269 | 14.5 | 29.0 | 0.00 | 0.00 | 0.00 | 78 | 1011.8 |
| 20260503005931 | 13 | 308 | 12.9 | 24.1 | 0.00 | 0.00 | 0.00 | 78 | 1011.8 |
| 20260503005417 | 13 | 320 | 12.9 | 24.1 | 0.00 | 0.00 | 0.00 | 77 | 1011.8 |
| 20260503004924 | 13 | 297 | 8.0 | 24.1 | 0.00 | 0.00 | 0.00 | 77 | 1011.8 |
| 20260503004433 | 13 | 256 | 12.9 | 25.7 | 0.00 | 0.00 | 0.00 | 76 | 1011.8 |
| 20260503003919 | 13 | 254 | 12.9 | 25.7 | 0.00 | 0.00 | 0.00 | 76 | 1011.8 |
| 20260503003425 | 13 | 308 | 9.7 | 24.1 | 0.00 | 0.00 | 0.00 | 77 | 1011.9 |
| 20260503002930 | 13 | 261 | 9.7 | 24.1 | 0.00 | 0.00 | 0.00 | 76 | 1012.0 |
| 20260503002418 | 13 | 261 | 9.7 | 20.9 | 0.00 | 0.00 | 0.00 | 76 | 1012.0 |
| 20260503001920 | 13 | 240 | 6.4 | 20.9 | 0.00 | 0.00 | 0.00 | 76 | 1012.0 |
| 20260503001456 | 13 | 313 | 8.0 | 22.5 | 0.00 | 0.00 | 0.00 | 77 | 1012.1 |
| 20260503000952 | 13 | 298 | 16.1 | 22.5 | 0.00 | 0.00 | 0.00 | 76 | 1012.1 |
| 20260503000437 | 13 | 343 | 12.9 | 20.9 | 0.00 | 0.00 | 0.00 | 76 | 1012.1 |
| 20260502235952 | 14 | 316 | 11.3 | 20.9 | 0.00 | 0.00 | 0.00 | 76 | 1012.1 |
| 20260502235418 | 14 | 230 | 8.0 | 29.0 | 0.00 | 0.00 | 0.00 | 76 | 1012.1 |
| 20260502234941 | 14 | 252 | 9.7 | 29.0 | 0.00 | 0.00 | 0.00 | 75 | 1012.1 |
| 20260502234428 | 14 | 306 | 12.9 | 22.5 | 0.00 | 0.00 | 0.00 | 75 | 1012.2 |
| 20260502233935 | 14 | 268 | 9.7 | 22.5 | 0.00 | 0.00 | 0.00 | 75 | 1012.2 |
| 20260502233421 | 14 | 292 | 9.7 | 19.3 | 0.00 | 0.00 | 0.00 | 75 | 1012.2 |
| 20260502232928 | 14 | 261 | 8.0 | 24.1 | 0.00 | 0.00 | 0.00 | 75 | 1012.3 |
| 20260502232434 | 14 | 219 | 14.5 | 24.1 | 0.00 | 0.00 | 0.00 | 74 | 1012.3 |
| 20260502231921 | 14 | 221 | 12.9 | 22.5 | 0.00 | 0.00 | 0.00 | 74 | 1012.4 |
| 20260502231428 | 14 | 224 | 9.7 | 20.9 | 0.00 | 0.00 | 0.00 | 74 | 1012.4 |
| 20260502230930 | 14 | 256 | 11.3 | 22.5 | 0.00 | 0.00 | 0.00 | 74 | 1012.5 |
| 20260502230435 | 15 | 221 | 11.3 | 22.5 | 0.00 | 0.00 | 0.00 | 74 | 1012.4 |
| 20260502225936 | 15 | 268 | 9.7 | 22.5 | 0.00 | 0.00 | 0.00 | 74 | 1012.6 |
| 20260502225426 | 15 | 234 | 8.0 | 17.7 | 0.00 | 0.00 | 0.00 | 74 | 1012.7 |
| 20260502224933 | 15 | 256 | 6.4 | 19.3 | 0.00 | 0.00 | 0.00 | 74 | 1012.7 |
| 20260502224421 | 15 | 186 | 6.4 | 20.9 | 0.00 | 0.00 | 0.00 | 75 | 1012.7 |
| 20260502223931 | 14 | 309 | 8.0 | 20.9 | 0.00 | 0.00 | 0.00 | 75 | 1012.8 |
| 20260502223432 | 14 | 229 | 8.0 | 25.7 | 0.00 | 0.00 | 0.00 | 76 | 1012.9 |
| 20260502222939 | 14 | 252 | 12.9 | 24.1 | 0.00 | 0.00 | 0.00 | 75 | 1013.1 |
| 20260502222445 | 14 | 242 | 11.3 | 25.7 | 0.00 | 0.00 | 0.00 | 76 | 1013.2 |
| 20260502221931 | 14 | 289 | 8.0 | 20.9 | 0.00 | 0.00 | 0.00 | 76 | 1013.2 |
| 20260502221417 | 14 | 294 | 9.7 | 25.7 | 0.00 | 0.00 | 0.00 | 75 | 1013.2 |
| 20260502220923 | 14 | 206 | 6.4 | 25.7 | 0.00 | 0.00 | 0.00 | 75 | 1013.4 |
| 20260502220446 | 14 | 255 | 12.9 | 22.5 | 0.00 | 0.00 | 0.00 | 75 | 1013.5 |
| 20260502215930 | 14 | 275 | 6.4 | 17.7 | 0.00 | 0.00 | 0.00 | 75 | 1013.4 |
| 20260502215436 | 14 | 292 | 8.0 | 17.7 | 0.00 | 0.00 | 0.00 | 75 | 1013.4 |
| 20260502214922 | 14 | 284 | 6.4 | 12.9 | 0.00 | 0.00 | 0.00 | 75 | 1013.5 |
| 20260502214428 | 13 | 282 | 6.4 | 22.5 | 0.00 | 0.00 | 0.00 | 76 | 1013.5 |
| 20260502213936 | 13 | 287 | 8.0 | 20.9 | 0.00 | 0.00 | 0.00 | 75 | 1013.6 |
| 20260502213424 | 14 | 237 | 8.0 | 19.3 | 0.00 | 0.00 | 0.00 | 75 | 1013.5 |
| 20260502212930 | 14 | 273 | 9.7 | 19.3 | 0.00 | 0.00 | 0.00 | 74 | 1013.6 |